Location: Tambov
(52.7163°N, 41.4075°E)
Time: 06:10:40
(UTC+03:00)

Envisat - Pass Details

Date: 07 March 2021
Orbit: 764 x 766 km, 98.1° (Epoch: 18 April)

Event Time Altitude Azimuth Distance (km) Brightness Sun altitude
Rises 05:27:20 0° 19° (NNE) 3,247 6.6 -12.9°
Reaches altitude 10° 05:29:47 10° 26° (NNE) 2,316 6.0 -12.6°
Maximum altitude 05:34:37 41° 97° (E) 1,100 4.5 -11.8°
Drops below altitude 10° 05:39:24 10° 168° (SSE) 2,298 5.6 -11.1°
Sets 05:41:49 0° 175° (S) 3,219 6.2 -10.8°
